Regional Weather Roundup
Issued by NWS Binghamton, NY

Home | Current Version | Previous Version | Text Only | Print | Product List | Glossary On
Versions: 1 2 3 4 5 6 7 8 9 10 11 12 13 14 15 16 17 18 19 20 21 22 23 24 25 26 27
000
ASUS41 KBGM 252110
RWRBGM

REGIONAL WEATHER ROUNDUP
NATIONAL WEATHER SERVICE BINGHAMTON NY
500 PM EDT TUE APR 25 2017

Note: "fair" indicates few or no clouds below 12,000 feet with no
significant weather and/or obstructions to visibility.

* = Station(s) that does not report precipitation, such as rain,
snow, etc, also no thunder or fog.

NYZ009-015>018-022>025-036-037-044>046-055>057-062-252200
...Central New York...

CITY           SKY/WX    TMP DP  RH WIND       PRES   REMARKS
Binghamton     CLOUDY    57  50  77 E15       29.95F
Cortland       CLOUDY    61  50  67 E7        29.97
Dansville      CLOUDY    64  51  62 SE14      29.92F
Elmira         CLOUDY    61  49  64 E15       29.93F
Seneca Falls   MOCLDY    66  54  63 S8        29.96S
Ithaca         CLOUDY    61  51  70 E9G18     29.96F
Hamilton       CLOUDY    55  46  71 E5        30.01F
Monticello     CLOUDY    48  48 100 E17G23    29.99F
Norwich        CLOUDY    57  46  67 E8        30.00F
Penn Yan       CLOUDY    62  49  62 E7        29.95F
Rome           LGT RAIN  53  49  86 SE10      30.06S
Sidney         CLOUDY    59  50  72 E6        29.97F
Syracuse       CLOUDY    57  49  74 NE15G22   29.98F
$$

PAZ038>040-043-044-047-048-072-252200
...Northeast Pennsylvania...

CITY           SKY/WX    TMP DP  RH WIND       PRES   REMARKS
Hazleton       DRIZZLE   54  52  94 E10G16    29.92F
Scranton       CLOUDY    56  51  84 NE8       29.92F
$$
&&
KEY
WCI = Wind Chill Index
VSB = Visibility
HX  = Heat Index
$$




USA.gov is the U.S. government's official web portal to all federal, state and local government web resources and services.